This is the latest recevied weather packets stored in our database for station/object HF3P-11. If no packets are shown the sender has not sent any weather packets the latest 10 day(s).
| Time | Temp. | Humidity | Pressure | Rain* | Wind** | Luminosity | Snow |
|---|---|---|---|---|---|---|---|
| 1787731498 | 18.89° C | 83% | 1016 hPa | 0 mm | - | - | - |
| 1787731206 | 18.89° C | 83% | 1015.9 hPa | 0 mm | - | - | - |
| 1787730906 | 18.89° C | 85% | 1015.8 hPa | 0 mm | - | - | - |
| 1787730598 | 18.89° C | 84% | 1015.8 hPa | 0 mm | - | - | - |
| 1787730298 | 18.33° C | 84% | 1015.6 hPa | 0 mm | - | - | - |
| 1787730007 | 18.33° C | 84% | 1015.7 hPa | 0 mm | - | - | - |
| 1787729697 | 18.33° C | 86% | 1015.5 hPa | 0 mm | - | - | - |
| 1787729406 | 18.33° C | 85% | 1015.6 hPa | 0 mm | - | - | - |
| 1787729107 | 17.78° C | 85% | 1015.6 hPa | 0 mm | - | - | - |
| 1787728806 | 17.78° C | 85% | 1015.5 hPa | 0 mm | - | - | - |
| 1787728498 | 17.78° C | 85% | 1015.5 hPa | 0 mm | - | - | - |
| 1787728198 | 17.78° C | 86% | 1015.4 hPa | 0 mm | - | - | - |
| 1787727898 | 17.78° C | 86% | 1015.4 hPa | 0 mm | - | - | - |
| 1787727598 | 17.78° C | 86% | 1015.3 hPa | 0 mm | - | - | - |
| 1787727298 | 18.33° C | 86% | 1015.4 hPa | 0 mm | - | - | - |
| 1787726997 | 18.33° C | 85% | 1015.5 hPa | 0 mm | - | - | - |
| 1787726707 | 18.89° C | 85% | 1015.4 hPa | 0 mm | - | - | - |
| 1787726406 | 18.89° C | 87% | 1015.3 hPa | 0 mm | - | - | - |
| 1787726106 | 18.33° C | 89% | 1015.2 hPa | 0 mm | - | - | - |
| 1787725806 | 17.22° C | 93% | 1015.3 hPa | 0 mm | - | - | - |
| 1787725508 | 16.67° C | 93% | 1015.2 hPa | 0 mm | - | - | - |
| 1787725206 | 16.11° C | 95% | 1015.2 hPa | 0 mm | - | - | - |
| 1787724898 | 15.56° C | 96% | 1015.1 hPa | 0 mm | - | - | - |
| 1787724598 | 15.56° C | 96% | 1015.4 hPa | 0 mm | - | - | - |
| 1787724298 | 15.56° C | 97% | 1015.2 hPa | 0 mm | - | - | - |
* Rain latest hour (hover to see other rain measurements)
** Current wind speed in m/s (hover to see current wind gust speed)